Location: North Shore
(34.2681°N, 117.1842°W)
Time: 04:36:57
(UTC+00:00)

Daily predictions for brighter satellites

Satellite Brightness Start Highest point End
(mag) Time Altitude Azimuth Time Altitude Azimuth Time Altitude Azimuth
Cosmos 2297 3.8 02:41:10 10° SSW 02:46:47 89° ESE 02:52:30 10° NNE
SL-08 R/B 4.1 02:42:35 10° N 02:47:13 60° WNW 02:51:55 10° SSW
CZ-4B DEB 4.3 02:45:26 10° SSE 02:50:51 58° ENE 02:56:16 10° N
SJ 16-02 3.2 02:49:39 10° NE 02:51:45 13° ENE 02:53:49 10° E
Cosmos 1441 Rocket 3.7 02:48:33 10° SSW 02:52:12 62° W 02:55:56 10° N
ADEOS 3.7 02:50:39 10° SSE 02:55:51 82° WSW 03:01:06 10° NNW
Cosmos 2369 Rocket 2.2 02:50:23 10° SSW 02:56:03 77° ESE 03:01:43 10° NNE
APEX 2.8 02:53:20 10° NNW 02:56:32 72° WSW 02:59:27 10° SSE
ADEOS Rocket 3.1 02:51:18 10° S 02:56:56 72° WSW 03:02:25 10° NNW
NOSS 3-1 (A) 4.4 02:58:15 10° SE 03:00:29 13° ESE 03:02:50 10° ENE
SPOT 1/Viking Rocket 3.9 02:59:03 10° SE 03:03:58 45° ENE 03:08:56 10° N
SL-8 Rocket 4.4 02:58:37 10° N 03:04:24 40° E 03:10:06 10° SSE
Cosmos 2263 4.2 02:59:32 10° S 03:05:06 65° ESE 03:10:40 10° NNE
Cosmos 1825 2.7 03:02:10 10° NNE 03:05:16 30° E 03:08:07 11° SE
H-2A ROCKET BODY 3.8 03:01:43 10° WSW 03:06:32 47° S 03:21:37 14° ESE
Cosmos 1674 Rocket 3.6 03:03:54 10° N 03:08:22 87° W 03:12:48 10° S
CZ-4B R/B 3.6 03:05:15 10° SE 03:10:38 47° ENE 03:15:59 10° N
Hubble Space Telescope 1.6 03:10:37 10° WSW 03:14:14 34° S 03:16:31 18° ESE
[s.n.70599] 2.5 03:12:32 10° WNW 03:15:02 60° SSW 03:16:20 23° SE
Cosmos 2341 Rocket 4.1 03:09:46 10° N 03:15:56 56° E 03:22:02 10° SSE
Resurs 1-3 3.5 03:14:46 10° SSE 03:19:07 89° E 03:23:29 10° NNW
Cosmos 2082 Rocket 4.1 03:16:04 10° NW 03:20:59 30° WSW 03:25:51 10° SSW
USA 234 3.5 03:15:42 15° ESE 03:21:02 55° NE 03:27:21 10° NW
Milstar 3 4.3 03:13:22 10° SW 03:22:02 51° SSE 03:37:37 11° E
NOSS 3-1 (C) 2.8 03:18:46 10° SSW 03:23:19 62° ESE 03:28:32 10° NE
Cosmos 1025 Rocket 3.1 03:24:43 10° N 03:29:01 56° E 03:32:22 16° SSE
Okean O Rocket 2.1 03:26:49 21° SE 03:29:12 40° ENE 03:33:17 10° N
Resurs 01 Rocket 1.9 03:32:30 23° SE 03:34:59 48° ENE 03:39:14 10° N
Cosmos 2366 rocket 4.0 03:29:02 10° N 03:35:21 65° E 03:41:38 10° SSE
Cosmos 1346 Rocket 3.1 03:31:56 10° SSW 03:35:43 65° W 03:39:31 10° N
CARTOSAT-1 3.9 03:35:11 27° SE 03:37:04 44° ENE 03:41:08 10° N
SJ-6B 3.7 03:33:34 10° S 03:37:21 48° W 03:41:13 10° NNW
Cosmos 1975 Rocket 3.5 03:37:20 10° N 03:41:23 38° E 03:42:18 34° ESE
Cosmos 2218 Rocket 4.0 03:36:24 10° N 03:42:48 72° E 03:48:45 12° SSE
ATLAS 3B R/B 2.9 03:37:53 10° S 03:44:25 51° ESE 03:51:27 10° NE
Cosmos 1328 3.6 03:40:49 10° N 03:44:36 90° W 03:46:50 23° S
OAO 3 Rocket 3.2 03:44:09 10° W 03:49:03 83° N 03:51:07 35° E
Centaur D-1AR AC-36 3.9 03:45:12 10° SSW 03:49:18 26° SSE 03:50:48 25° SE
USA 281 3.5 03:46:26 27° ESE 03:49:48 50° ENE 03:56:06 10° N
USA 186 2.2 03:49:12 27° SSW 03:50:37 56° W 03:53:38 10° NNW
Cosmos 1821 Rocket 4.2 03:45:01 10° N 03:50:53 45° E 03:53:13 32° SE
Cosmos 1782 Rocket 4.0 03:47:05 10° SSW 03:51:21 60° W 03:55:42 10° N
Cosmos 1892 4.0 03:48:51 10° NNW 03:52:09 37° W 03:55:26 10° SSW
Cosmos 1959 Rocket 4.4 03:46:38 10° N 03:52:47 82° E 03:58:02 15° S
Meteor 1-21 Rocket 4.3 03:51:58 10° N 03:57:55 85° W 04:02:40 16° S
CZ-4 R/B 3.2 03:54:38 10° SSW 03:58:10 30° W 04:01:38 10° NW
DELTA 2 R/B (1) 3.6 03:53:33 10° WNW 03:59:09 71° SSW 04:01:06 41° SE
Cosmos 1455 4.1 03:57:41 10° SW 04:00:49 28° W 04:03:57 10° NNW
SPOT 5 3.9 04:03:53 32° ENE 04:03:59 32° ENE 04:08:39 10° N
ATLAS 5 CENTAUR R/B 1.3 04:00:56 10° SW 04:04:12 60° WNW 04:07:36 10° NNE
Cosmos 968 Rocket 4.4 04:03:45 10° NNW 04:08:36 45° WSW 04:12:18 17° SSW
ERS-1 Rocket 4.4 04:16:11 22° NE 04:16:11 22° NE 04:19:05 10° NNE
Delta 2 Rocket 4.5 04:11:05 10° WSW 04:17:13 39° S 04:18:02 37° S
Meteor 1-11 4.1 04:11:53 10° N 04:17:33 73° E 04:18:52 53° SSE
Okean 2 Rocket 4.5 04:29:18 28° NNE 04:29:18 28° NNE 04:31:35 10° NNE
MOS 1 4.2 04:28:08 65° SE 04:28:54 76° ENE 04:34:36 10° N
SJ 16-02 2.2 04:26:13 10° NNW 04:30:18 43° WSW 04:30:56 40° SW
CZ-4C R/B 4.5 04:28:42 10° N 04:31:38 35° WNW 04:31:38 35° WNW
OAO 1 Rocket 4.3 04:29:32 10° W 04:34:52 82° N 04:34:58 82° NNE
In-Cosmos 22 Rocket 4.5 04:29:38 10° NNW 04:35:00 63° W 04:36:36 44° SSW
Cosmos 1934 Rocket 4.5 04:30:58 10° N 04:35:59 42° ENE 04:35:59 42° ENE
IRS-1C Rocket 4.2 04:37:49 64° NE 04:37:49 64° NE 04:42:35 10° N
Cosmos 2297 Rocket 4.3 04:39:34 10° NNE 04:41:24 14° NE 04:41:24 14° NE
Okean-O 3.2 04:43:30 53° WNW 04:43:30 53° WNW 04:47:25 10° NNW
MetOp-B 4.1 04:46:23 74° N 04:46:23 74° N 04:51:17 10° NNW
Terra 3.4 04:48:09 25° NNE 04:48:09 25° NNE 04:50:23 10° N
NOSS 3-1 (A) 3.6 04:45:48 10° SW 04:50:25 52° NW 04:55:45 10° NNE
Hubble Space Telescope 3.5 04:51:01 10° WSW 04:51:24 12° WSW 04:51:24 12° WSW
IRS-1A Rocket 4.5 05:03:42 74° NW 05:03:42 74° NW 05:09:07 10° NNW
USA 234 4.2 05:03:03 34° SW 05:04:05 35° SW 05:10:00 10° WNW
Ariane Rocket 4.4 05:07:21 31° N 05:07:21 31° N 05:10:04 10° N
Okean O Rocket 4.2 05:04:10 12° WSW 05:05:37 14° W 05:07:54 10° WNW
Resurs 01 Rocket 4.4 05:10:03 10° WSW 05:11:38 12° W 05:13:15 10° WNW
ATLAS 3B R/B 4.4 05:29:16 10° WSW 05:35:24 31° NW 05:41:55 10° NNE
Cosmos 2227 Rocket 4.4 05:53:04 10° N 05:54:46 18° NNE 05:54:46 18° NNE
CZ-4C R/B 4.1 06:16:29 10° NNW 06:21:29 35° NNE 06:21:29 35° NNE
Cosmos 2297 Rocket 4.4 06:21:32 10° NNW 06:23:12 20° NNW 06:23:12 20° NNW
CENTAUR R/B 4.2 06:56:28 10° NNW 07:02:34 39° NNE 07:02:34 39° NNE
CZ-2D R/B 4.2 09:28:52 10° NNE 09:30:50 23° NNE 09:30:50 23° NNE
SL-16 R/B 4.1 09:36:56 27° E 09:37:48 28° ENE 09:42:58 10° N
COSMOS 2428 4.2 09:52:37 32° NNE 09:52:37 32° NNE 09:55:34 10° NNE
CZ-2C R/B 4.3 09:58:45 29° N 09:58:45 29° N 10:01:24 10° N
Cosmos 2237 Rocket 3.8 09:58:31 30° ENE 09:58:31 30° ENE 10:02:12 10° NE
Lacrosse 5 4.4 10:00:41 14° N 10:00:41 14° N 10:02:12 10° N
ALOS 4.4 10:00:15 10° NNE 10:02:17 23° NE 10:02:17 23° NE
ATLAS 2AS CENTAUR R/B 4.4 10:07:19 23° SE 10:09:03 25° ESE 10:14:46 10° ENE
Resurs 1-4 Rocket 3.9 10:09:03 10° N 10:11:13 24° N 10:11:13 24° N
Nadezhda 4 Rocket 4.4 10:28:35 53° NNW 10:28:35 53° NNW 10:33:14 10° N
NOSS 0 Rocket 4.1 10:32:14 63° N 10:32:14 63° N 10:37:25 10° NNE
Cosmos 2278 Rocket 3.5 10:29:43 10° N 10:35:00 38° ENE 10:40:15 10° SE
Cosmos 2219 Rocket 4.3 10:37:32 15° NNW 10:37:32 15° NNW 10:39:23 10° NNW
Cosmos 1428 Rocket 4.4 10:38:19 85° NE 10:38:19 85° NE 10:44:27 10° N
ATLAS 5 CENTAUR R/B 3.8 10:42:32 37° S 10:42:32 37° S 10:47:47 10° SE
Cosmos 1151 Rocket 4.3 10:44:41 37° NNE 10:44:41 37° NNE 10:47:27 10° NNE
SL-16 R/B 4.0 10:45:14 18° SE 10:47:51 26° ESE 10:52:25 10° NE
CZ-2C R/B 3.6 10:47:29 10° NNE 10:52:20 40° E 10:53:57 32° SE
Cosmos 921 Rocket 4.5 10:53:25 30° ESE 10:53:44 31° E 10:57:31 10° NE
ADEOS II 3.6 10:55:45 10° N 10:58:31 24° NW 10:58:31 24° NW
Meteor 1-19 Rocket 4.3 11:02:23 64° WNW 11:02:23 64° WNW 11:08:14 10° N
Cosmos 923 Rocket 4.0 11:03:38 65° NW 11:03:38 65° NW 11:08:28 10° NNE
Cosmos 1092 Rocket 3.9 11:09:38 60° WSW 11:10:21 66° W 11:16:28 10° N
CZ-2D R/B 4.2 11:10:48 10° NNW 11:12:08 13° NW 11:12:08 13° NW
CZ-3 R/B 4.2 11:01:21 27° SSW 11:13:41 40° SSE 11:22:59 10° E
Envisat 2.9 11:09:03 10° NNE 11:14:08 90° WSW 11:15:01 62° SSW
Cosmos 2026 Rocket 4.0 11:16:44 52° WSW 11:17:43 57° W 11:23:57 10° N
SL-16 R/B 3.1 11:22:00 37° W 11:22:00 37° W 11:26:53 10° NNW
Cosmos 1666 Rocket 4.3 11:18:24 10° N 11:22:45 52° E 11:27:03 10° SSE
NOSS 2-2 (E) 4.5 11:18:19 10° NNW 11:23:30 78° ENE 11:30:56 10° SE
Meteor 1-18 Rocket 4.3 11:21:50 26° S 11:25:06 74° E 11:30:47 10° NNE
Intercosmos 25 Rocket 4.3 11:22:45 10° N 11:26:31 58° E 11:32:13 10° SSE
YAOGAN 6 2.8 11:23:36 10° NNE 11:26:19 57° NNE 11:26:19 57° NNE
CZ-4 R/B 4.1 11:24:31 10° N 11:29:03 47° WNW 11:29:06 47° WNW
Thor Agena Rocket 3.4 11:27:13 10° NNE 11:32:16 83° WNW 11:34:22 36° SSW
EO 1 Delta rocket 4.4 11:28:07 10° N 11:32:15 39° WNW 11:32:15 39° WNW
Meteor 2-4 Rocket 3.5 11:30:43 37° SSW 11:32:54 77° W 11:38:23 10° N
Cosmos 1943 Rocket 2.5 11:28:14 10° NNW 11:33:54 69° ENE 11:39:30 10° SSE
H-2A R/B 3.8 11:31:42 10° NE 11:36:07 30° E 11:40:37 10° SSE
Cosmos 1340 Rocket 3.3 11:39:28 41° NW 11:39:28 41° NW 11:42:39 10° N
Cosmos 2237 Rocket 3.2 11:40:21 27° WNW 11:41:09 28° WNW 11:46:00 10° N
ALOS 4.0 11:38:20 10° NNW 11:40:37 17° NW 11:40:37 17° NW
NOAA 11 4.2 11:36:17 10° N 11:41:38 60° WNW 11:44:06 32° SW
Cosmos 2112 Rocket 4.3 11:41:26 38° WSW 11:42:50 47° WNW 11:48:00 10° N
Cosmos 1867 4.0 11:41:49 10° NW 11:46:49 37° WSW 11:51:46 10° S
Cosmos 1328 Rocket 3.6 11:45:30 39° SW 11:46:50 58° W 11:51:13 10° N
Cosmos 1805 3.0 11:43:58 10° NNW 11:47:37 58° W 11:48:22 46° SW
DMSP B5D2-2 4.2 11:43:57 10° SSE 11:49:07 77° ENE 11:54:19 10° N
SWAS 4.4 11:51:02 10° NNW 11:55:15 80° ENE 11:59:26 10° SSE
